[[{"header":{"parameterUnit":"m.s-1","parameterCategory":1,"la1":30.2991,"la2":30.254,"lo1":-89.0895,"lo2":-89.0444,"dy":0.0017,"dx":0.0017,"nx":28,"ny":28,"refTime":"2025-08-25T09:00:00:Z","depth":0,"parameterNumber":2,"parameterNumberName":"U-component_of_WINDS"},"data":[0,0,0,0,0,0,0,0,0,0,0,0,0,0,0,0,0,0,0,0,0,0,0,0,0,0,0,0,0,0,0,0,0,0,0,0,0,0,0,0,0,0,0,0,0,0,0,0,0,0,0,0,0,0,0,0,0,0,-5.2414,-5.2414,0,-5.2375,-5.2374,-5.2374,-5.2215,-5.2211,-5.2207,-5.2204,-5.2166,-5.2168,-5.2171,0,0,0,0,0,0,0,0,0,0,0,0,0,-5.2355,-5.2357,-5.2415,-5.2414,-5.2414,-5.2375,-5.2374,-5.2374,-5.2215,-5.2211,-5.2206,-5.2202,-5.2165,-5.2168,-5.2171,0,0,0,0,0,0,0,0,0,0,0,0,0,-5.2355,-5.2358,-5.2415,-5.233,-5.2322,-5.2375,-5.2374,-5.2374,-5.2216,-5.2211,-5.2205,-5.22,-5.2164,-5.2168,-5.2171,-5.2304,0,0,-5.2182,-5.2184,0,0,0,0,0,0,0,0,-5.2355,-5.2358,-5.2343,-5.2336,-5.2327,-5.2294,-5.2339,-5.2351,-5.2218,-5.2256,-5.2204,-5.2197,-5.2213,-5.2212,-5.2217,-5.2303,-5.2301,-5.2183,-5.2185,-5.2187,-5.2188,0,0,0,0,0,0,0,-5.2356,-5.2358,-5.2399,-5.2343,-5.2333,-5.2294,-5.2288,-5.2341,-5.2266,-5.2253,-5.2241,-5.2238,-5.2208,-5.2214,-5.2215,-5.23,-5.2183,-5.2186,-5.2188,-5.219,-5.2493,-5.2499,0,0,0,0,0,0,-5.2367,-5.2359,-5.24,-5.2398,-5.2328,-5.23,-5.2293,-5.231,-5.2265,-5.2253,-5.2243,-5.2231,-5.2211,-5.2211,-5.2213,-5.2366,-5.2187,-5.219,-5.2192,-5.2487,-5.2494,-5.2501,0,0,0,0,0,0,-5.2367,-5.2372,-5.2402,-5.2375,-5.2376,-5.2307,-5.2327,-5.2312,-5.2318,-5.2258,-5.2244,-5.2263,-5.2206,-5.2208,-5.2283,-5.2362,-5.2192,-5.2195,-5.248,-5.249,-5.2498,-5.2673,0,0,0,0,0,0,-5.2366,-5.2373,-5.2422,-5.2378,-5.2378,-5.2472,-5.2332,-5.2315,-5.2325,-5.2309,-5.2273,-5.2262,-5.2202,-5.2278,-5.2286,-5.2364,-5.2198,-5.2473,-5.2484,-5.2495,-5.266,-5.2686,-5.2709,0,0,0,0,0,-5.2364,-5.2474,-5.2426,-5.2431,-5.2438,-5.2476,-5.2477,-5.2405,-5.2332,-5.2381,-5.2342,-5.2263,-5.2353,-5.2287,-5.2295,-5.2375,-5.2468,-5.2481,-5.2494,-5.2648,-5.2681,-5.2709,0,0,0,0,0,0,-5.2531,-5.2466,-5.2412,-5.2511,-5.25,-5.2449,-5.2509,-5.2442,-5.2453,-5.2437,-5.2348,-5.2342,-5.243,-5.241,-5.2338,-5.2502,-5.2397,-5.2412,-5.2511,-5.2542,-5.2567,-5.2569,-5.2201,0,0,0,0,0,-5.2579,-5.2614,-5.2557,-5.2649,-5.2646,-5.258,-5.2593,-5.2539,-5.2525,-5.252,-5.2486,-5.2477,-5.2502,-5.2521,-5.2541,-5.2656,-5.2646,-5.2715,-5.274,-5.2761,-5.2775,-5.2835,-5.2865,-5.2544,-5.2544,-5.2544,0,0,-5.2679,-5.2648,-5.2676,-5.2682,-5.2667,-5.2707,-5.2577,-5.2624,-5.2653,-5.2527,-5.2595,-5.2571,-5.2554,-5.265,-5.269,-5.2636,-5.2862,-5.2778,-5.2795,-5.2798,-5.2852,-5.2882,-5.2909,-5.2553,-5.2552,-5.255,0,0,-5.288,-5.2861,-5.2935,-5.2924,-5.2903,-5.2857,-5.2876,-5.2835,-5.2814,-5.2881,-5.2787,-5.2821,-5.2867,-5.2859,-5.2861,-5.3061,-5.2989,-5.307,-5.3201,-5.326,-5.3285,-5.3307,-5.3378,-5.3405,-5.3085,-5.3085,-5.3086,0,-5.3007,-5.3062,-5.2983,-5.3036,-5.3042,-5.2929,-5.3004,-5.2997,-5.2985,-5.2992,-5.2931,-5.2987,-5.2968,-5.306,-5.3109,-5.3114,-5.3132,-5.3074,-5.3288,-5.3309,-5.3328,-5.3395,-5.3422,-5.3095,-5.3094,-5.3093,-5.3092,0,-5.3219,-5.3259,-5.3322,-5.3312,-5.3325,-5.339,-5.332,-5.3343,-5.3288,-5.325,-5.332,-5.3293,-5.3306,-5.3324,-5.3271,-5.3409,-5.3376,-5.3303,-5.3196,-5.337,-5.3432,-5.3457,-5.311,-5.3106,-5.3103,-5.3101,0,0,-5.3524,-5.347,-5.3494,-5.3488,-5.3457,-5.3487,-5.3547,-5.3559,-5.358,-5.3576,-5.3624,-5.3666,-5.3599,-5.3601,-5.3547,-5.3599,-5.3759,-5.3519,-5.3517,-5.3565,-5.391,-5.3965,-5.3996,-5.3711,-5.3716,-5.3719,-5.3911,0,-5.3716,-5.3814,-5.3745,-5.3855,-5.3891,-5.3785,-5.3837,-5.3825,-5.3791,-5.3817,-5.378,-5.3811,-5.3719,-5.372,-5.3767,-5.373,-5.3827,-5.3715,-5.3756,-5.3758,-5.3763,-5.4028,-5.4085,-5.4268,-5.3935,-5.3939,-5.3942,0,-5.3953,-5.3959,-5.4072,-5.4034,-5.4047,-5.4095,-5.41,-5.4127,-5.4111,-5.4083,-5.4086,-5.4018,-5.4075,-5.397,-5.4048,-5.3973,-5.3986,-5.397,-5.3976,-5.3976,-5.386,-5.4036,-5.4324,-5.4352,-5.3979,-5.3976,-5.3973,0,-5.4164,-5.42,-5.4272,-5.4271,-5.4228,-5.4265,-5.4249,-5.4227,-5.4239,-5.4245,-5.4251,-5.4264,-5.4271,-5.4283,-5.4221,-5.415,-5.4307,-5.4197,-5.4286,-5.4288,-5.4323,-5.4321,-5.4618,-5.4333,-5.4332,-5.4332,-5.4331,0,-5.4385,-5.4459,-5.4366,-5.4411,-5.4491,-5.4411,-5.4492,-5.4465,-5.4448,-5.4486,-5.4396,-5.4434,-5.4349,-5.4379,-5.4331,-5.4403,-5.4407,-5.4386,-5.4372,-5.4394,-5.4397,-5.44,-5.4386,-5.4339,-5.4337,-5.4336,-5.4335,0,-5.4634,-5.4575,-5.4647,-5.4601,-5.4591,-5.4652,-5.4613,-5.4653,-5.4613,-5.4663,-5.467,-5.4608,-5.4639,-5.4577,-5.46,-5.4568,-5.4669,-5.4636,-5.4674,-5.4664,-5.4757,-5.4749,-5.5065,-5.5103,-5.4795,-5.4798,-5.48,0,-5.4779,-5.4833,-5.4793,-5.4811,-5.48,-5.4832,-5.4843,-5.4767,-5.4783,-5.477,-5.4812,-5.4834,-5.4848,-5.4902,-5.486,-5.4877,-5.4843,-5.4953,-5.4845,-5.4865,-5.4845,-5.4842,-5.4847,-5.4975,-5.4979,-5.4982,-5.4985,0,-5.5042,-5.501,-5.5029,-5.5039,-5.5055,-5.506,-5.5057,-5.5078,-5.4997,-5.502,-5.505,-5.5061,-5.5084,-5.5108,-5.5115,-5.5099,-5.503,-5.5019,-5.504,-5.5063,-5.5083,-5.5073,-5.4735,-5.5012,-5.5009,-5.5007,-5.5006,-5.5005,-5.5243,-5.5286,-5.5264,-5.5289,-5.5279,-5.528,-5.5315,-5.5279,-5.5302,-5.5314,-5.5269,-5.5309,-5.5292,-5.5295,-5.5287,-5.5318,-5.5269,-5.53,-5.5308,-5.5317,-5.5331,-5.5079,-5.5319,-5.5318,-5.5318,-5.5317,-5.5316,0,-5.5501,-5.5482,-5.5505,-5.5505,-5.5525,-5.5456,-5.5451,-5.5472,-5.5508,-5.5499,-5.5514,-5.5549,-5.5572,-5.5532,-5.5549,-5.5582,-5.555,-5.5589,-5.5585,-5.5583,-5.5375,-5.5354,-5.5614,-5.5614,-5.5614,-5.5614,-5.5614,-5.5614,-5.5637,-5.5707,-5.5673,-5.5737,-5.5717,-5.5755,-5.5758,-5.5758,-5.5749,-5.5792,-5.581,-5.5784,-5.5762,-5.5777,-5.5796,-5.5783,-5.5794,-5.5844,-5.5821,-5.5627,-5.5598,-5.557,-5.555,-5.5847,-5.5847,-5.6026,-5.6028,-5.6029]},{"header":{"parameterUnit":"m.s-1","parameterCategory":1,"la1":30.2991,"la2":30.254,"lo1":-89.0895,"lo2":-89.0444,"dy":0.0017,"dx":0.0017,"nx":28,"ny":28,"refTime":"2025-08-25T09:00:00:Z","depth":0,"parameterNumber":3,"parameterNumberName":"V-component_of_WINDS"},"data":[0,0,0,0,0,0,0,0,0,0,0,0,0,0,0,0,0,0,0,0,0,0,0,0,0,0,0,0,0,0,0,0,0,0,0,0,0,0,0,0,0,0,0,0,0,0,0,0,0,0,0,0,0,0,0,0,0,0,-0.746,-0.746,0,-0.7506,-0.7506,-0.7507,-0.7526,-0.7526,-0.7526,-0.7525,-0.7573,-0.7575,-0.7576,0,0,0,0,0,0,0,0,0,0,0,0,0,-0.7388,-0.7389,-0.746,-0.746,-0.7461,-0.7506,-0.7506,-0.7507,-0.7526,-0.7526,-0.7526,-0.7525,-0.7573,-0.7574,-0.7576,0,0,0,0,0,0,0,0,0,0,0,0,0,-0.7425,-0.7389,-0.746,-0.7476,-0.7478,-0.7506,-0.7506,-0.7507,-0.7526,-0.7526,-0.7525,-0.7525,-0.7572,-0.7574,-0.7576,-0.7592,0,0,-0.7582,-0.7583,0,0,0,0,0,0,0,0,-0.7423,-0.7427,-0.7473,-0.7475,-0.7477,-0.751,-0.7498,-0.7536,-0.7526,-0.7508,-0.7525,-0.7525,-0.7552,-0.7556,-0.7565,-0.7594,-0.7596,-0.7583,-0.7584,-0.7585,-0.7585,0,0,0,0,0,0,0,-0.742,-0.7426,-0.7478,-0.7473,-0.7476,-0.748,-0.7485,-0.7506,-0.753,-0.7509,-0.7511,-0.7516,-0.7553,-0.7563,-0.7566,-0.7597,-0.7583,-0.7584,-0.7586,-0.7587,-0.764,-0.764,0,0,0,0,0,0,-0.7415,-0.7423,-0.7477,-0.7479,-0.7449,-0.7482,-0.7487,-0.7499,-0.753,-0.7535,-0.7516,-0.7516,-0.756,-0.7564,-0.7568,-0.7588,-0.7585,-0.7587,-0.7588,-0.764,-0.764,-0.764,0,0,0,0,0,0,-0.7413,-0.7419,-0.7475,-0.7452,-0.7459,-0.7483,-0.7496,-0.75,-0.751,-0.7535,-0.754,-0.7521,-0.756,-0.7565,-0.7585,-0.7589,-0.7588,-0.7589,-0.7639,-0.764,-0.764,-0.7627,0,0,0,0,0,0,-0.7411,-0.7419,-0.7425,-0.7452,-0.746,-0.7492,-0.7497,-0.7501,-0.7513,-0.7515,-0.7541,-0.7546,-0.756,-0.7582,-0.7587,-0.7592,-0.7591,-0.7639,-0.7639,-0.764,-0.7627,-0.7627,-0.7627,0,0,0,0,0,-0.7408,-0.742,-0.7426,-0.7432,-0.7469,-0.7492,-0.7497,-0.7513,-0.7514,-0.752,-0.7536,-0.7545,-0.7588,-0.7584,-0.759,-0.7596,-0.7639,-0.7639,-0.764,-0.7628,-0.7627,-0.7627,0,0,0,0,0,0,-0.7395,-0.7424,-0.743,-0.7451,-0.7469,-0.7495,-0.7504,-0.7512,-0.753,-0.753,-0.755,-0.7556,-0.7574,-0.7587,-0.7582,-0.7612,-0.7614,-0.7616,-0.7603,-0.7603,-0.7602,-0.7599,-0.7593,0,0,0,0,0,-0.7394,-0.741,-0.7435,-0.7451,-0.7459,-0.748,-0.7491,-0.7501,-0.752,-0.7528,-0.7545,-0.7564,-0.7581,-0.7593,-0.761,-0.7629,-0.7635,-0.7636,-0.7635,-0.7635,-0.7636,-0.7646,-0.7646,-0.7641,-0.7641,-0.7641,0,0,-0.7393,-0.7411,-0.742,-0.7449,-0.7464,-0.7479,-0.7486,-0.7503,-0.7515,-0.7531,-0.7551,-0.7564,-0.7585,-0.7605,-0.7614,-0.7616,-0.7639,-0.7635,-0.7635,-0.7637,-0.7646,-0.7647,-0.7647,-0.7642,-0.7642,-0.7641,0,0,-0.7399,-0.7414,-0.7429,-0.7443,-0.7465,-0.7478,-0.7482,-0.7506,-0.7516,-0.7536,-0.7547,-0.7562,-0.7592,-0.7606,-0.7618,-0.7627,-0.7635,-0.7632,-0.763,-0.764,-0.764,-0.7641,-0.7643,-0.7644,-0.7633,-0.7633,-0.7633,0,-0.7395,-0.7419,-0.7435,-0.7451,-0.7463,-0.7477,-0.7491,-0.7504,-0.7531,-0.7539,-0.754,-0.7577,-0.7593,-0.7615,-0.7617,-0.7626,-0.763,-0.7629,-0.7639,-0.7639,-0.764,-0.7643,-0.7644,-0.7633,-0.7633,-0.7633,-0.7633,0,-0.7413,-0.743,-0.7439,-0.7463,-0.7476,-0.7491,-0.7509,-0.752,-0.7528,-0.7541,-0.7561,-0.758,-0.7601,-0.7607,-0.7616,-0.763,-0.763,-0.7635,-0.7638,-0.764,-0.7643,-0.7644,-0.7632,-0.7632,-0.7632,-0.7632,0,0,-0.7413,-0.7445,-0.7448,-0.7459,-0.7483,-0.7496,-0.7511,-0.7531,-0.754,-0.7557,-0.757,-0.7594,-0.7598,-0.7611,-0.7622,-0.763,-0.7635,-0.7633,-0.7634,-0.7633,-0.765,-0.7646,-0.7647,-0.764,-0.764,-0.7641,-0.7648,0,-0.7422,-0.745,-0.7464,-0.7485,-0.75,-0.7513,-0.7525,-0.7541,-0.7553,-0.7568,-0.7581,-0.7597,-0.7602,-0.7609,-0.7618,-0.7632,-0.7638,-0.7632,-0.7652,-0.7652,-0.7646,-0.7649,-0.7646,-0.7652,-0.7649,-0.765,-0.765,0,-0.7437,-0.7454,-0.7476,-0.7497,-0.7504,-0.7516,-0.7534,-0.7548,-0.7566,-0.7574,-0.7587,-0.7597,-0.7613,-0.7614,-0.7635,-0.763,-0.7639,-0.7647,-0.7648,-0.7651,-0.7651,-0.7652,-0.7655,-0.7656,-0.7652,-0.7652,-0.7652,0,-0.7435,-0.7462,-0.7479,-0.7488,-0.7513,-0.7521,-0.7531,-0.7549,-0.756,-0.7576,-0.7583,-0.7601,-0.761,-0.7624,-0.7638,-0.7638,-0.7658,-0.7661,-0.7665,-0.7664,-0.7669,-0.7669,-0.7673,-0.7675,-0.7675,-0.7675,-0.7675,0,-0.7444,-0.7457,-0.7478,-0.7488,-0.7503,-0.7518,-0.7533,-0.7544,-0.756,-0.7572,-0.7584,-0.7595,-0.7614,-0.7627,-0.7638,-0.7654,-0.7658,-0.7665,-0.7668,-0.7664,-0.7663,-0.7671,-0.767,-0.7675,-0.7675,-0.7675,-0.7675,0,-0.7444,-0.7458,-0.7477,-0.7499,-0.7504,-0.7514,-0.7533,-0.7543,-0.7555,-0.757,-0.7575,-0.7593,-0.761,-0.7625,-0.7647,-0.7655,-0.767,-0.7674,-0.7664,-0.7666,-0.7669,-0.7668,-0.7679,-0.768,-0.768,-0.768,-0.768,0,-0.7449,-0.7459,-0.7481,-0.749,-0.75,-0.7515,-0.7525,-0.754,-0.755,-0.757,-0.7578,-0.7595,-0.7609,-0.7635,-0.765,-0.7667,-0.7671,-0.7673,-0.7674,-0.7669,-0.767,-0.767,-0.767,-0.7673,-0.7673,-0.7673,-0.7673,0,-0.7455,-0.7462,-0.7476,-0.7493,-0.7505,-0.7518,-0.7533,-0.7539,-0.7557,-0.7568,-0.7584,-0.7595,-0.7617,-0.7633,-0.7651,-0.7662,-0.767,-0.7672,-0.7674,-0.7671,-0.7664,-0.7667,-0.7663,-0.7672,-0.7672,-0.7672,-0.7672,-0.7672,-0.7458,-0.7467,-0.7484,-0.7499,-0.7511,-0.7523,-0.7534,-0.7546,-0.756,-0.7578,-0.7586,-0.7602,-0.7619,-0.7643,-0.7654,-0.7667,-0.7669,-0.7672,-0.7672,-0.7673,-0.7672,-0.7662,-0.767,-0.767,-0.767,-0.767,-0.767,0,-0.7465,-0.7476,-0.749,-0.7509,-0.752,-0.7526,-0.7541,-0.7551,-0.7565,-0.7579,-0.7593,-0.7611,-0.7626,-0.7642,-0.7658,-0.7666,-0.767,-0.7669,-0.7669,-0.7671,-0.7669,-0.7666,-0.7666,-0.7666,-0.7666,-0.7666,-0.7666,-0.7666,-0.747,-0.7486,-0.7494,-0.7515,-0.7525,-0.7541,-0.7549,-0.7561,-0.7572,-0.7591,-0.7604,-0.7614,-0.7629,-0.7646,-0.766,-0.7664,-0.767,-0.7668,-0.7673,-0.7671,-0.7672,-0.7672,-0.7669,-0.7669,-0.7669,-0.7674,-0.7674,-0.7674]}]]